This is the latest recevied weather packets stored in our database for station/object OK1FET-4. If no packets are shown the sender has not sent any weather packets the latest 10 day(s).
| Time | Temp. | Humidity | Pressure | Rain* | Wind** | Luminosity | Snow |
|---|---|---|---|---|---|---|---|
| 1788617298 | 23.33° C | 42% | 1019.6 hPa | - | - | - | - |
| 1788616992 | 22.78° C | 43% | 1019.7 hPa | - | - | - | - |
| 1788616691 | 22.22° C | 43% | 1019.7 hPa | - | - | - | - |
| 1788616390 | 22.78° C | 42% | 1019.8 hPa | - | - | - | - |
| 1788616089 | 23.33° C | 41% | 1019.6 hPa | - | - | - | - |
| 1788615788 | 23.33° C | 41% | 1019.7 hPa | - | - | - | - |
| 1788615487 | 23.33° C | 42% | 1019.8 hPa | - | - | - | - |
| 1788615186 | 23.33° C | 41% | 1019.6 hPa | - | - | - | - |
| 1788614884 | 23.89° C | 43% | 1019.8 hPa | - | - | - | - |
| 1788614583 | 23.33° C | 44% | 1019.9 hPa | - | - | - | - |
| 1788614282 | 23.89° C | 42% | 1019.6 hPa | - | - | - | - |
| 1788613981 | 23.89° C | 43% | 1019.8 hPa | - | - | - | - |
| 1788613680 | 23.89° C | 45% | 1019.8 hPa | - | - | - | - |
| 1788613378 | 23.33° C | 43% | 1019.9 hPa | - | - | - | - |
| 1788613077 | 23.89° C | 44% | 1019.7 hPa | - | - | - | - |
| 1788612776 | 22.78° C | 46% | 1019.9 hPa | - | - | - | - |
| 1788612475 | 22.78° C | 46% | 1020 hPa | - | - | - | - |
| 1788612174 | 22.22° C | 48% | 1020.1 hPa | - | - | - | - |
| 1788611873 | 21.67° C | 48% | 1020.1 hPa | - | - | - | - |
| 1788611572 | 22.22° C | 47% | 1019.9 hPa | - | - | - | - |
| 1788611271 | 22.22° C | 46% | 1020 hPa | - | - | - | - |
| 1788610970 | 22.78° C | 48% | 1020.2 hPa | - | - | - | - |
| 1788610668 | 22.78° C | 49% | 1020 hPa | - | - | - | - |
| 1788610367 | 22.22° C | 49% | 1020.4 hPa | - | - | - | - |
| 1788610067 | 21.11° C | 53% | 1020.4 hPa | - | - | - | - |
* Rain since midnight (hover to see other rain measurements)
** Current wind speed in m/s (hover to see current wind gust speed)